GFSNIL_925_spd_306.txt.gz
Wind_Speed
30 27 26 22 21 19 18 17 16 17 17 17 16 15 14 14 14 13 13 13 13 13
31 29 28 24 21 21 19 17 17 17 17 17 17 16 15 15 15 14 14 14 14 14
31 30 28 24 25 23 21 21 19 19 19 18 18 17 17 17 16 15 15 14 14 14
30 30 28 28 27 25 24 22 22 20 19 19 19 19 19 18 17 17 16 16 15 15
27 27 29 30 28 25 24 23 23 21 21 21 20 20 20 20 18 18 18 17 16 16
26 27 29 29 27 26 25 24 23 23 22 22 22 21 21 21 20 20 19 18 17 16
23 25 26 25 25 26 26 25 25 25 26 25 23 23 22 21 21 21 20 19 18 17
20 20 21 22 24 25 25 26 26 24 25 25 25 25 24 23 22 21 21 19 19 19
15 16 18 20 22 23 25 25 25 26 27 26 28 29 29 27 21 21 21 21 19 19
14 16 17 18 20 23 25 25 27 27 27 28 28 30 30 29 25 22 22 21 19 18
14 15 15 17 20 21 22 25 26 27 27 28 30 32 32 29 27 25 24 22 20 20
12 14 15 19 20 21 22 23 25 26 26 28 28 32 33 29 27 27 27 23 22 21
9 13 16 17 18 18 20 22 22 25 26 27 28 30 31 32 28 27 25 23 23 24
11 13 15 16 16 18 19 20 20 23 24 25 26 28 29 32 30 29 25 23 22 22

GFSNIL_925_spd_309.txt.gz
Wind_Speed
32 30 29 27 24 23 22 21 20 21 21 20 18 17 16 16 16 15 15 15 14 14
32 31 30 28 27 25 23 21 20 21 22 21 20 19 18 18 17 16 16 16 15 16
32 31 31 27 27 26 25 24 22 23 22 22 21 21 20 19 18 18 17 17 16 16
29 30 30 29 29 28 25 25 26 25 24 24 24 23 23 22 20 19 19 18 18 18
25 26 28 29 28 27 27 27 27 27 26 25 25 25 25 24 22 22 21 20 20 19
22 24 26 27 27 27 27 27 26 26 26 26 27 26 27 26 24 23 22 21 21 20
20 22 24 24 25 27 28 28 28 28 28 28 27 27 27 26 26 25 24 23 22 21
16 18 20 22 23 24 26 28 28 27 28 27 28 29 29 28 28 26 25 24 24 24
14 16 18 18 20 21 24 26 26 28 29 29 31 31 32 30 28 27 26 25 25 24
12 14 17 17 19 22 23 24 27 28 29 31 31 31 32 34 31 26 27 26 25 23
11 12 13 16 18 20 21 24 25 27 29 29 30 31 32 32 33 30 28 26 27 25
11 12 15 18 20 21 21 24 25 26 27 29 30 30 32 32 31 30 29 28 27 26
10 12 15 17 19 20 21 24 23 25 26 27 29 29 31 33 31 28 28 28 28 29
10 12 13 15 17 17 19 20 21 23 24 25 27 28 29 32 33 30 27 26 26 28

GFSNIL_925_spd_312.txt.gz
Wind_Speed
39 41 37 36 33 33 32 31 28 28 28 29 27 27 26 24 23 21 21 20 20 19
40 39 40 36 34 32 33 31 28 29 29 29 29 27 25 26 26 24 23 23 22 22
38 39 38 35 35 35 35 30 30 31 31 30 29 29 28 28 27 26 25 25 24 23
32 34 34 35 36 35 34 34 32 31 32 32 31 30 31 31 30 29 28 27 26 25
31 31 32 34 34 34 33 32 32 33 33 34 34 33 33 33 31 31 30 29 28 28
24 28 31 31 31 31 33 33 33 33 35 34 35 34 35 35 34 32 32 31 30 30
22 24 26 27 28 29 31 32 33 35 35 36 36 35 35 35 35 34 34 33 31 31
18 20 22 25 26 26 28 30 32 33 33 35 35 36 37 37 36 36 35 33 33 33
15 17 20 21 22 24 26 27 29 31 34 34 38 38 38 38 39 37 37 37 36 34
14 15 17 18 21 23 25 26 29 33 34 36 38 37 37 37 37 38 38 38 36 34
14 15 16 18 21 21 22 25 28 31 33 36 39 38 37 36 35 36 38 38 38 37
16 17 17 19 21 22 23 25 28 30 32 34 38 37 35 33 34 36 40 40 37 37
16 18 19 19 20 21 23 25 26 29 31 33 35 35 35 34 34 33 32 36 36 39
19 20 20 19 19 20 22 23 25 26 30 30 32 34 34 33 35 35 30 31 30 34

GFSNIL_925_spd_315.txt.gz
Wind_Speed
46 46 46 44 42 39 37 37 34 32 32 32 31 30 29 29 30 29 29 27 26 25
45 45 45 45 44 41 38 38 37 35 34 34 33 33 32 34 34 32 30 29 27 27
40 42 45 44 43 42 40 38 38 38 37 35 35 34 34 34 34 34 34 33 31 30
37 37 39 42 42 41 39 38 39 38 37 37 37 36 35 36 36 35 35 34 32 32
31 34 35 37 39 38 38 36 37 38 38 37 39 38 38 38 38 38 39 38 36 36
23 26 32 35 34 35 34 35 35 37 39 40 39 39 40 40 39 40 41 40 39 37
21 22 24 28 31 32 32 33 35 37 38 40 41 42 42 42 42 42 42 42 41 38
17 18 19 22 25 27 30 31 33 35 38 39 40 41 42 42 42 42 42 42 43 42
15 16 18 20 22 24 26 28 29 33 36 39 42 43 43 41 41 42 42 41 43 43
16 18 18 18 20 23 25 26 29 32 34 38 41 42 41 40 40 41 41 41 41 38
19 20 18 19 22 23 23 26 28 30 33 36 40 40 39 37 38 40 42 42 42 41
22 23 22 24 24 24 24 25 27 29 30 32 35 35 36 34 34 37 39 39 43 43
24 26 27 27 26 25 24 26 25 27 29 30 33 31 31 31 32 32 33 32 35 41
29 30 30 29 27 25 24 24 26 28 29 30 29 31 30 30 32 33 31 29 30 32